Weather History for LEMG - January, 2013

Change the Weather History Date:

Tuesday, January 8, 2013

  Actual Average Record
Temperature  
Mean Temperature 59 °F -  
Max Temperature 65 °F 60 °F 71 °F (1999)
Min Temperature 53 °F 44 °F 35 °F (2000)
Degree Days  
Heating Degree Days 6    
Growing Degree Days 9 (Base 50)    
Moisture  
Dew Point 41 °F    
Average Humidity 55    
Maximum Humidity 67    
Minimum Humidity 37    
Precipitation  
Precipitation 0.00 in 0.11 in - ()
Sea Level Pressure  
Sea Level Pressure 30.35 in    
Wind  
Wind Speed 14 mph ()    
Max Wind Speed 18 mph    
Max Gust Speed 28 mph    
Visibility 14.3 miles    
Events      
Averages and records for this station are not official NWS values.
T = Trace of Precipitation, MM = Missing Value Source: Averaged Metar Reports

Daily Weather History Graph

Daily Weather History Graph

Search for Another Location

Airport or City:

Trip Planner

Search our weather history database for the weather conditions in past years. The results will help you decide how hot, cold, wet, or windy it might be!

Date:

Astronomy

Jan. 08, 2013 Rise Set
Actual Time 8:30 AM CET 6:18 PM CET
Civil Twilight 8:02 AM CET 6:47 PM CET
Nautical Twilight 7:30 AM CET 7:19 PM CET
Astronomical Twilight 6:58 AM CET 7:50 PM CET
Moon 4:48 AM CET (1/8) 3:07 PM CET (1/8)
Length of Visible Light 10h 45m
Length of Day
9h 48m
Waning Crescent, 16% of the Moon is Illuminated
Jan 8
Waning Crescent
Jan 11
New
Jan 19
First Quarter
Jan 27
Full
Feb 3
Last Quarter

Hourly Weather History & Observations

Time (CET) Temp. Dew Point Humidity Pressure Visibility Wind Dir Wind Speed Gust Speed Precip Events Conditions
12:00 AM 57.2 °F 42.8 °F 59% 30.33 in - West 17.3 mph - N/A   Clear
12:30 AM 57.2 °F 42.8 °F 59% 30.33 in - West 17.3 mph - N/A   Clear
1:00 AM 58 °F 43 °F 47% 30.35 in 12 mi West 17.3 mph - -  
1:00 AM 57.2 °F 42.8 °F 59% 30.33 in - West 17.3 mph - N/A   Clear
1:30 AM 57.2 °F 42.8 °F 59% 30.33 in - West 17.3 mph - N/A   Clear
2:00 AM 57.2 °F 42.8 °F 59% 30.33 in - West 16.1 mph - N/A   Clear
2:30 AM 55.4 °F 42.8 °F 63% 30.30 in - West 16.1 mph 27.6 mph N/A   Clear
3:00 AM 55.4 °F 42.8 °F 63% 30.30 in - West 17.3 mph - N/A   Clear
3:30 AM 55.4 °F 42.8 °F 63% 30.33 in - West 17.3 mph - N/A   Clear
4:00 AM 55.4 °F 42.8 °F 63% 30.33 in - West 18.4 mph - N/A   Clear
4:30 AM 55.4 °F 42.8 °F 63% 30.33 in - West 17.3 mph - N/A   Clear
5:00 AM 55.4 °F 42.8 °F 63% 30.33 in - West 17.3 mph - N/A   Clear
5:30 AM 53.6 °F 42.8 °F 67% 30.30 in - West 18.4 mph - N/A   Clear
6:00 AM 53.6 °F 42.8 °F 67% 30.30 in - West 17.3 mph - N/A   Clear
6:30 AM 53.6 °F 42.8 °F 67% 30.33 in - West 16.1 mph - N/A   Clear
7:00 AM 55 °F 41 °F 49% 30.34 in 12 mi West 18.4 mph - -  
7:00 AM 53.6 °F 41.0 °F 62% 30.33 in - West 18.4 mph - N/A   Clear
7:30 AM 53.6 °F 41.0 °F 62% 30.33 in - West 16.1 mph - N/A   Clear
8:00 AM 53.6 °F 41.0 °F 62% 30.33 in - West 15.0 mph - N/A   Clear
8:30 AM 53.6 °F 41.0 °F 62% 30.36 in - West 13.8 mph - N/A   Clear
9:00 AM 53.6 °F 41.0 °F 62% 30.36 in - West 13.8 mph - N/A   Clear
9:30 AM 53.6 °F 42.8 °F 67% 30.36 in - West 15.0 mph - N/A   Clear
10:00 AM 55.4 °F 42.8 °F 63% 30.39 in - West 13.8 mph - N/A   Clear
10:30 AM 57.2 °F 42.8 °F 59% 30.39 in - West 13.8 mph - N/A   Clear
11:00 AM 57.2 °F 42.8 °F 59% 30.39 in - West 15.0 mph - N/A   Clear
11:30 AM 59.0 °F 42.8 °F 55% 30.39 in - West 12.7 mph - N/A   Clear
12:00 PM 60.8 °F 41.0 °F 48% 30.39 in - West 15.0 mph - N/A   Clear
12:30 PM 60.8 °F 42.8 °F 52% 30.39 in - West 13.8 mph - N/A   Clear
1:00 PM 63 °F 43 °F 37% 30.38 in 22 mi West 13.8 mph - -  
1:00 PM 62.6 °F 41.0 °F 45% 30.36 in - West 13.8 mph - N/A   Clear
1:30 PM 62.6 °F 41.0 °F 45% 30.36 in - West 15.0 mph - N/A   Clear
2:00 PM 62.6 °F 39.2 °F 42% 30.36 in - West 15.0 mph - N/A   Clear
2:30 PM 62.6 °F 42.8 °F 48% 30.33 in - West 13.8 mph - N/A   Clear
3:00 PM 62.6 °F 39.2 °F 42% 30.33 in - West 13.8 mph - N/A   Clear
3:30 PM 64.4 °F 41.0 °F 42% 30.33 in - NW 10.4 mph - N/A   Clear
4:00 PM 64.4 °F 39.2 °F 40% 30.33 in - WNW 10.4 mph - N/A   Clear
5:00 PM 60.8 °F 41.0 °F 48% 30.33 in - WNW 10.4 mph - N/A   Clear
5:30 PM 60.8 °F 41.0 °F 48% 30.33 in - WNW 9.2 mph - N/A   Clear
6:00 PM 57.2 °F 41.0 °F 55% 30.33 in - WNW 9.2 mph - N/A   Clear
6:30 PM 57.2 °F 39.2 °F 51% 30.33 in - West 8.1 mph - N/A   Clear
7:00 PM 59 °F 42 °F 43% 30.35 in 19 mi West 10.4 mph - -   Clear
7:00 PM 57.2 °F 39.2 °F 51% 30.33 in - West 10.4 mph - N/A   Clear
7:30 PM 57.2 °F 39.2 °F 51% 30.36 in - West 9.2 mph - N/A   Clear
8:00 PM 55.4 °F 39.2 °F 54% 30.36 in - West 9.2 mph - N/A   Clear
8:30 PM 55.4 °F 37.4 °F 51% 30.36 in - West 10.4 mph - N/A   Clear
9:00 PM 55.4 °F 37.4 °F 51% 30.36 in - West 11.5 mph - N/A   Clear
9:30 PM 55.4 °F 37.4 °F 51% 30.36 in - West 11.5 mph - N/A   Clear
10:00 PM 55.4 °F 37.4 °F 51% 30.36 in - West 13.8 mph - N/A   Clear
10:30 PM 55.4 °F 37.4 °F 51% 30.36 in - West 13.8 mph - N/A   Clear
11:00 PM 53.6 °F 37.4 °F 54% 30.36 in - West 15.0 mph - N/A   Clear
11:30 PM 53.6 °F 37.4 °F 54% 30.36 in - West 16.1 mph - N/A   Clear